Regional Weather Roundup
Issued by NWS

Home | Current Version | Previous Version | Text Only | Print | Product List | Glossary On
Versions: 1 2 3 4 5 6 7 8 9 10 11 12 13 14 15 16 17 18 19 20 21 22 23 24 25 26 27 28 29 30 31 32 33 34 35 36 37 38 39 40 41 42 43 44 45 46 47 48 49 50
000
ASCA44 KEWX 300320
RWRMX

LATIN AMERICA AND CARIBBEAN REGIONAL WEATHER ROUNDUP
NATIONAL WEATHER SERVICE AUSTIN/SAN ANTONIO TX
1000 PM CDT SUN MAY 29 2016

NOTE: "FAIR" INDICATED FEW OR NO CLOUDS BELOW 12,000 FEET WITH NO
SIGNIFICANT WEATHER AND/OR OBSTRUCTIONS TO VISIBILITY.

BAJA CALIFORNIA

CITY           SKY/WX    TMP DP  RH WIND       PRES   REMARKS
LA PAZ         PTCLDY    75  48  38 S8        29.95R
MEXICALI       CLEAR     84  36  17 SE5       29.80R
S.J. DEL CABO  PTCLDY    86  57  37 CALM      29.88R
TIJUANA        CLOUDY    63  52  67 W9        30.01R

NORTHWESTERN MEXICO

CITY           SKY/WX    TMP DP  RH WIND       PRES   REMARKS
CULIACAN       MOCLDY    86  68  54 S12       29.89R
DURANGO        MOCLDY    79  37  22 SW9       30.19R
GUAYMAS          N/A    N/A N/A N/A MISG        N/A
HERMOSILLO     PTCLDY    88  54  31 SW8       29.88R
CD. JUAREZ     PTCLDY    82  48  30 SW7       29.95R
LOS MOCHIS     PTCLDY    82  61  47 W5        29.87R

NORTHEASTERN MEXICO

CITY           SKY/WX    TMP DP  RH WIND       PRES   REMARKS
CHIHUAHUA      MOCLDY    75  43  31 NW13      30.11R
MONCLOVA         N/A    N/A N/A N/A MISG        N/A
MONTERREY      MOCLDY    79  72  78 E8        29.98F
REYNOSA        PTCLDY    79  72  78 SE9       29.99R
SALTILLO       PTCLDY    68  55  64 N12       30.20S
TORREON        PTCLDY    88  54  31 NE9       29.98R
CD. VICTORIA     N/A    N/A N/A N/A MISG        N/A

WESTERN MEXICO

CITY           SKY/WX    TMP DP  RH WIND       PRES   REMARKS
AGUASCALIENTES PTCLDY    81  37  21 E6        30.19R
COLIMA         PTCLDY    75  70  83 CALM      30.04R
DEL BAJIO      PTCLDY    75  52  43 NE7       30.25R
GUADALAJARA    PTCLDY    81  45  28 W9G25     30.13R
MAZATLAN       MOCLDY    81  70  69 W6        29.89R
P. VALLARTA    PTCLDY    79  75  89 CALM      29.89R
URUAPAN        MOCLDY    73  61  64 CALM      30.21R
ZACATECAS      PTCLDY    77  32  19 CALM      30.24R

CENTRAL MEXICO

CITY           SKY/WX    TMP DP  RH WIND       PRES   REMARKS
CUERNAVACA       N/A    N/A N/A N/A MISG        N/A
MEXICO CITY    CLOUDY    66  55  68 W5        30.38R
MORELIA        MOCLDY    72  59  64 W3        30.23R
POZA RICA        N/A    N/A N/A N/A MISG        N/A
QUERETARO      MOCLDY    70  59  68 E9        30.32
S. LUIS POTOSI PTCLDY    70  57  64 S14       30.22R
TAMPICO        MOCLDY    82  77  83 NE12      29.98R HX  91
TOLUCA         CLOUDY    63  52  67 CALM      30.44R

SOUTHERN MEXICO

CITY           SKY/WX    TMP DP  RH WIND       PRES   REMARKS
ACAPULCO       PTCLDY    82  75  78 W6        29.89R
B. DE HUATULCO MOCLDY    82  75  78 CALM      29.96  HAZE
P. ESCONDIDO     N/A    N/A N/A N/A MISG        N/A
VERACRUZ       PTCLDY    84  79  84 N9        29.95R HX  96
ZIHUATANEJO      N/A    N/A N/A N/A MISG        N/A

YUCATAN PENINSULA

CITY           SKY/WX    TMP DP  RH WIND       PRES   REMARKS
CAMPECHE       CLEAR     88  73  62 NE17G29   29.89R HX  96
CANCUN         PTCLDY    82  75  78 E6        29.99R
CHETUMAL       CLEAR     84  77  79 CALM      29.96R HX  94
CD. DEL CARMEN CLEAR     84  77  79 NE20      29.90R HX  94
COZUMEL        PTCLDY    75  73  94 E5        29.99R
MERIDA         PTCLDY    84  75  74 NE12      29.97R HX  92
MINATITLAN       N/A    N/A N/A N/A MISG        N/A
TAPACHULA      PTCLDY    82  79  89 CALM      29.84S HX  93
TUX. GUTIERREZ MOCLDY    84  68  58 NW12      29.92R
VILLAHERMOSA   PTCLDY    82  77  83 NE7       29.90R HX  91

CENTRAL AMERICA

CITY           SKY/WX    TMP DP  RH WIND       PRES   REMARKS

CARIBBEAN

CITY           SKY/WX    TMP DP  RH WIND       PRES   REMARKS
ARUBA          PTCLDY    82  77  83 E18       29.92R HX  91
CURACAO        PTCLDY    82  77  83 E15       29.94S HX  91
KINGSTON       PTCLDY    82  75  78 N7        29.94S
NASSAU         PTCLDY    79  77  94 NE3       30.06R
SAN JUAN       TSTM      75  75 100 CALM      30.04F
SANTO DOMINGO  PTCLDY    75  72  88 CALM      29.97S
ST. CROIX      PTCLDY    79  75  89 N5        30.03
ST. THOMAS     CLEAR     82  73  74 E7        30.03S

$$





USA.gov is the U.S. government's official web portal to all federal, state and local government web resources and services.